CW8248 Weather Reports


Display with metric or nautical units.
time (UTC)temp
F
wind
direction
speed
MPH
gust
MPH
rain 1hr
in
rain 24hr
in
rain mn
in
humidity
%
barometer
mb
20260505034544 67 260 5.0 11.0 0.00 0.00 0.00 53 1008.5
20260505034041 68 258 5.0 17.0 0.00 0.00 0.00 53 1008.4
20260505033541 68 213 5.0 17.0 0.00 0.00 0.00 52 1008.3
20260505033048 68 236 5.0 14.0 0.00 0.00 0.00 52 1008.2
20260505032541 68 245 4.0 16.0 0.00 0.00 0.00 51 1008.1
20260505032044 68 191 5.0 11.0 0.00 0.00 0.00 51 1008.1
20260505031541 68 265 4.0 18.0 0.00 0.00 0.00 51 1008.0
20260505031041 68 249 7.0 14.0 0.00 0.00 0.00 51 1007.9
20260505030543 68 256 6.0 14.0 0.00 0.00 0.00 50 1007.9
20260505030040 69 237 0.0 9.0 0.00 0.00 0.00 49 1007.8
20260505025540 69 116 4.0 16.0 0.00 0.00 0.00 49 1007.7
20260505025041 69 21 2.0 16.0 0.00 0.00 0.00 48 1007.7
20260505024603 69 209 4.0 12.0 0.00 0.00 0.00 48 1007.5
20260505024042 69 350 2.0 16.0 0.00 0.00 0.00 48 1007.5
20260505023539 70 234 2.0 17.0 0.00 0.00 0.00 48 1007.4
20260505023041 70 273 3.0 17.0 0.00 0.00 0.00 47 1007.3
20260505022539 70 3 1.0 11.0 0.00 0.00 0.00 49 1007.5
20260505022040 70 254 4.0 18.0 0.00 0.00 0.00 47 1007.4
20260505021554 70 268 8.0 18.0 0.00 0.00 0.00 47 1007.3
20260505021038 70 329 3.0 9.0 0.00 0.00 0.00 46 1007.3
20260505020538 71 219 1.0 11.0 0.00 0.00 0.00 47 1007.4
20260505020045 71 259 4.0 16.0 0.00 0.00 0.00 47 1007.3
20260505015538 71 246 4.0 16.0 0.00 0.00 0.00 46 1007.2
20260505015038 71 346 5.0 14.0 0.00 0.00 0.00 46 1007.2
20260505014539 71 248 5.0 15.0 0.00 0.00 0.00 46 1007.2
20260505014037 71 285 3.0 13.0 0.00 0.00 0.00 45 1007.2
20260505013542 71 173 3.0 14.0 0.00 0.00 0.00 45 1007.2
20260505013038 72 191 5.0 21.0 0.00 0.00 0.00 44 1007.1
20260505012538 72 224 4.0 15.0 0.00 0.00 0.00 44 1007.1
20260505012038 72 339 5.0 18.0 0.00 0.00 0.00 44 1007.1
20260505011548 72 264 5.0 18.0 0.00 0.00 0.00 45 1007.0
20260505011038 72 191 8.0 17.0 0.00 0.00 0.00 44 1006.8
20260505010537 72 191 8.0 17.0 0.00 0.00 0.00 44 1006.8
20260505010039 72 323 6.0 17.0 0.00 0.00 0.00 44 1006.9
20260505005537 73 262 4.0 17.0 0.00 0.00 0.00 44 1006.9
20260505005037 73 270 7.0 15.0 0.00 0.00 0.00 43 1006.8
20260505004543 73 191 4.0 18.0 0.00 0.00 0.00 43 1006.8
20260505004037 73 289 7.0 22.0 0.00 0.00 0.00 43 1006.9
20260505003537 73 265 9.0 22.0 0.00 0.00 0.00 43 1006.8
20260505003035 73 259 9.0 20.0 0.00 0.00 0.00 42 1006.8
20260505002537 74 253 10.0 20.0 0.00 0.00 0.00 41 1006.8
20260505002036 74 338 10.0 22.0 0.00 0.00 0.00 42 1006.8
20260505001536 74 260 7.0 22.0 0.00 0.00 0.00 42 1006.7
20260505001035 74 255 6.0 22.0 0.00 0.00 0.00 42 1006.8
20260505000535 74 289 11.0 21.0 0.00 0.00 0.00 42 1006.8
20260505000034 74 191 9.0 21.0 0.00 0.00 0.00 42 1006.7
20260504235534 74 191 8.0 21.0 0.00 0.00 0.00 42 1006.8
20260504235038 74 191 10.0 21.0 0.00 0.00 0.00 40 1006.8
20260504234534 75 250 8.0 20.0 0.00 0.00 0.00 40 1006.7
20260504234038 75 333 9.0 21.0 0.00 0.00 0.00 39 1006.6
20260504233534 75 339 9.0 21.0 0.00 0.00 0.00 39 1006.6
20260504233043 76 312 8.0 21.0 0.00 0.00 0.00 38 1006.6
20260504232534 76 271 6.0 18.0 0.00 0.00 0.00 39 1006.6
20260504232031 76 272 8.0 21.0 0.00 0.00 0.00 39 1006.6
20260504231530 76 307 7.0 21.0 0.00 0.00 0.00 39 1006.7
20260504231029 75 238 8.0 18.0 0.00 0.00 0.00 42 1006.8
20260504230529 75 191 9.0 19.0 0.00 0.00 0.00 41 1006.7
20260504230028 75 229 10.0 24.0 0.00 0.00 0.00 42 1006.8
20260504225529 74 231 12.0 24.0 0.00 0.00 0.00 43 1006.8
20260504225026 72 345 9.0 24.0 0.00 0.00 0.00 46 1006.9
20260504224524 71 259 11.0 24.0 0.00 0.00 0.00 46 1007.0
20260504224024 71 265 8.0 21.0 0.00 0.00 0.00 46 1007.1
20260504223523 72 271 9.0 26.0 0.00 0.00 0.00 47 1007.2
20260504223027 71 260 14.0 26.0 0.00 0.00 0.00 47 1007.2
20260504222521 71 238 10.0 25.0 0.00 0.00 0.00 50 1007.3
20260504222020 70 256 12.0 25.0 0.00 0.00 0.00 49 1007.4
20260504221519 70 263 14.0 27.0 0.00 0.00 0.00 50 1007.4
20260504221018 70 260 17.0 27.0 0.00 0.00 0.00 50 1007.4
20260504220522 71 191 10.0 21.0 0.00 0.00 0.00 49 1007.5
20260504220022 71 236 11.0 21.0 0.00 0.00 0.00 48 1007.5
20260504215518 70 254 8.0 21.0 0.00 0.00 0.00 49 1007.6
20260504215019 71 223 8.0 19.0 0.00 0.00 0.00 47 1007.5
20260504214517 71 235 8.0 18.0 0.00 0.00 0.00 49 1007.6
20260504214017 70 191 8.0 22.0 0.00 0.00 0.00 48 1007.6
20260504213517 70 260 7.0 22.0 0.00 0.00 0.00 49 1007.8
20260504213018 71 259 9.0 22.0 0.00 0.00 0.00 47 1007.8
20260504212516 71 191 5.0 22.0 0.00 0.00 0.00 48 1008.0
20260504212014 70 267 7.0 22.0 0.00 0.00 0.00 49 1008.1
20260504211514 70 248 6.0 19.0 0.00 0.00 0.00 47 1008.1
20260504211014 70 273 9.0 22.0 0.00 0.00 0.00 49 1008.2
20260504210517 70 273 10.0 21.0 0.00 0.00 0.00 49 1008.3
20260504210013 70 253 8.0 19.0 0.00 0.00 0.00 48 1008.2
20260504205515 70 242 8.0 21.0 0.00 0.00 0.00 50 1008.3
20260504205012 70 273 7.0 17.0 0.00 0.00 0.00 49 1008.4
20260504204516 70 263 7.0 21.0 0.00 0.00 0.00 51 1008.4
20260504204009 70 235 9.0 22.0 0.00 0.00 0.00 49 1008.5
20260504203510 69 276 9.0 23.0 0.00 0.00 0.00 50 1008.5
20260504203008 69 231 9.0 23.0 0.00 0.00 0.00 49 1008.7
20260504202508 69 288 13.0 21.0 0.00 0.00 0.00 51 1008.6
20260504202007 69 256 10.0 19.0 0.00 0.00 0.00 51 1008.7
20260504201507 68 228 10.0 21.0 0.00 0.00 0.00 53 1008.6
20260504201008 68 250 12.0 21.0 0.00 0.00 0.00 53 1008.7
20260504200506 68 191 12.0 23.0 0.00 0.00 0.00 52 1008.6
20260504200006 68 266 14.0 26.0 0.00 0.00 0.00 52 1008.6
20260504195504 68 306 13.0 28.0 0.00 0.00 0.00 53 1008.7
20260504195005 68 191 15.0 27.0 0.00 0.00 0.00 53 1008.7
20260504194507 68 263 12.0 28.0 0.00 0.00 0.00 51 1008.7
20260504194005 68 191 13.0 28.0 0.00 0.00 0.00 51 1008.8
20260504193503 68 256 14.0 27.0 0.00 0.00 0.00 53 1008.7
20260504193003 68 191 12.0 26.0 0.00 0.00 0.00 54 1008.8
20260504192502 68 248 14.0 28.0 0.00 0.00 0.00 52 1008.7
20260504192001 68 262 15.0 31.0 0.00 0.00 0.00 54 1008.9
20260504191502 68 281 17.0 31.0 0.00 0.00 0.00 53 1008.8
20260504191059 68 276 11.0 25.0 0.00 0.00 0.00 53 1009.0
20260504190559 67 266 11.0 25.0 0.00 0.00 0.00 55 1009.0
20260504190057 67 252 14.0 25.0 0.00 0.00 0.00 53 1009.0
20260504185556 67 258 10.0 28.0 0.00 0.00 0.00 54 1009.0
20260504185055 67 191 17.0 28.0 0.00 0.00 0.00 54 1009.1
20260504184559 67 254 15.0 24.0 0.00 0.00 0.00 53 1009.0
20260504184055 67 275 14.0 26.0 0.00 0.00 0.00 54 1009.1
20260504183553 67 191 12.0 26.0 0.00 0.00 0.00 55 1009.2
20260504183051 66 283 13.0 24.0 0.00 0.00 0.00 55 1009.2
20260504182550 66 276 14.0 30.0 0.00 0.00 0.00 55 1009.2
20260504182048 66 277 17.0 31.0 0.00 0.00 0.00 56 1009.2
20260504181552 66 191 14.0 27.0 0.00 0.00 0.00 56 1009.2
20260504181046 66 191 14.0 29.0 0.00 0.00 0.00 56 1009.3
20260504180547 66 248 13.0 24.0 0.00 0.00 0.00 56 1009.3
20260504180043 65 268 11.0 27.0 0.00 0.00 0.00 58 1009.3
20260504175542 65 259 14.0 27.0 0.00 0.00 0.00 57 1009.3
20260504175043 65 265 13.0 27.0 0.00 0.00 0.00 57 1009.4
20260504174540 65 261 12.0 26.0 0.00 0.00 0.00 56 1009.4
20260504174038 64 258 13.0 26.0 0.00 0.00 0.00 58 1009.4
20260504173538 65 219 12.0 25.0 0.00 0.00 0.00 58 1009.5
20260504173036 64 285 11.0 26.0 0.00 0.00 0.00 58 1009.4
20260504172536 64 281 14.0 26.0 0.00 0.00 0.00 59 1009.4
20260504172035 64 243 16.0 26.0 0.00 0.00 0.00 60 1009.6
20260504171535 64 257 13.0 27.0 0.00 0.00 0.00 59 1009.5
20260504171034 64 258 18.0 32.0 0.00 0.00 0.00 59 1009.5
20260504170533 64 237 18.0 32.0 0.00 0.00 0.00 58 1009.5
20260504151012 60 279 7.0 16.0 0.00 0.00 0.00 65 1010.0
20260504150513 60 258 5.0 12.0 0.00 0.00 0.00 64 1010.0
20260504141002 53 35 0.0 4.0 0.00 0.00 0.00 72 1009.9
20260504140504 52 56 2.0 4.0 0.00 0.00 0.00 72 1009.9
20260504130551 50 16 1.0 2.0 0.00 0.00 0.00 75 1009.4
20260504110536 53 50 1.0 2.0 0.00 0.00 0.00 70 1009.0
20260504100534 53 51 0.0 3.0 0.00 0.00 0.00 71 1009.0
20260504081534 59 51 0.0 3.0 0.00 0.00 0.00 60 1008.7
20260504081015 59 52 0.0 3.0 0.00 0.00 0.00 60 1008.7
20260504080515 59 52 0.0 3.0 0.00 0.00 0.00 60 1008.8
20260504050504 64 19 1.0 3.0 0.00 0.00 0.00 50 1008.0
20260504050006 64 54 1.0 4.0 0.00 0.00 0.00 50 1008.0
20260504045502 64 54 0.0 4.0 0.00 0.00 0.00 50 1007.9
20260504045003 64 54 0.0 2.0 0.00 0.00 0.00 50 1007.8
20260504044502 63 54 1.0 2.0 0.00 0.00 0.00 52 1007.8
20260504044002 64 54 0.0 3.0 0.00 0.00 0.00 51 1007.8
20260504043502 65 54 1.0 3.0 0.00 0.00 0.00 49 1007.7
20260504043002 66 54 0.0 2.0 0.00 0.00 0.00 46 1007.6
20260504042503 67 54 0.0 2.0 0.00 0.00 0.00 43 1007.6
20260504042005 67 54 0.0 2.0 0.00 0.00 0.00 43 1007.5
20260504041502 67 54 0.0 2.0 0.00 0.00 0.00 44 1007.3
20260504041003 67 54 1.0 2.0 0.00 0.00 0.00 44 1007.3
20260504040503 67 54 0.0 1.0 0.00 0.00 0.00 44 1007.2
20260504040002 68 54 0.0 2.0 0.00 0.00 0.00 43 1007.1
20260504035501 68 54 0.0 3.0 0.00 0.00 0.00 42 1007.1
20260504035001 69 54 1.0 4.0 0.00 0.00 0.00 41 1007.0